QPF
0.00 0.00 0.00 0.00 0.00 0.00 0.00 0.00 0.00 0.00 0.00 0.00 0.00 0.00 0.00 0.00 0.00 0.00 0.00 0.00 0.00 0.00 0.00 0.00 0.00 0.00 0.00 0.00 0.00 0.00 0.00 0.01 0.03 0.02 0.00 0.00 0.00 0.00 0.00 0.00 0.00 0.00 0.00 0.00
0.00 0.00 0.00 0.00 0.00 0.00 0.00 0.00 0.00 0.00 0.00 0.00 0.00 0.00 0.00 0.00 0.00 0.00 0.00 0.00 0.00 0.00 0.00 0.00 0.00 0.00 0.00 0.00 0.00 0.00 0.00 0.01 0.01 0.00 0.00 0.00 0.00 0.00 0.00 0.00 0.00 0.00 0.00 0.00
0.00 0.00 0.00 0.00 0.00 0.00 0.00 0.00 0.00 0.00 0.00 0.00 0.00 0.00 0.00 0.00 0.00 0.00 0.00 0.00 0.00 0.00 0.00 0.00 0.00 0.00 0.00 0.00 0.00 0.00 0.00 0.00 0.00 0.00 0.00 0.00 0.00 0.00 0.00 0.00 0.00 0.00 0.00 0.00
0.00 0.00 0.00 0.00 0.00 0.00 0.00 0.00 0.00 0.00 0.00 0.00 0.00 0.00 0.00 0.00 0.00 0.00 0.00 0.00 0.00 0.00 0.00 0.00 0.00 0.00 0.00 0.00 0.00 0.00 0.00 0.00 0.00 0.00 0.00 0.00 0.00 0.00 0.00 0.00 0.00 0.00 0.00 0.00
0.00 0.00 0.00 0.00 0.00 0.00 0.00 0.00 0.00 0.00 0.00 0.00 0.00 0.00 0.00 0.00 0.00 0.00 0.00 0.00 0.00 0.00 0.00 0.00 0.00 0.00 0.00 0.00 0.00 0.00 0.00 0.00 0.00 0.00 0.00 0.00 0.00 0.00 0.00 0.00 0.00 0.00 0.00 0.00
0.00 0.00 0.00 0.00 0.00 0.00 0.00 0.00 0.00 0.00 0.00 0.00 0.00 0.00 0.00 0.00 0.00 0.00 0.00 0.00 0.00 0.00 0.00 0.00 0.00 0.00 0.00 0.00 0.00 0.00 0.00 0.00 0.00 0.00 0.00 0.00 0.00 0.00 0.00 0.00 0.00 0.00 0.00 0.00
0.00 0.00 0.00 0.00 0.00 0.00 0.00 0.00 0.00 0.00 0.00 0.00 0.00 0.00 0.00 0.00 0.00 0.00 0.00 0.00 0.00 0.00 0.00 0.01 0.00 0.00 0.00 0.00 0.00 0.00 0.00 0.00 0.00 0.00 0.00 0.00 0.00 0.00 0.00 0.00 0.00 0.00 0.00 0.00
0.00 0.00 0.00 0.00 0.00 0.00 0.00 0.00 0.00 0.00 0.00 0.00 0.00 0.00 0.00 0.00 0.00 0.00 0.01 0.01 0.00 0.01 0.02 0.01 0.00 0.00 0.00 0.00 0.00 0.00 0.00 0.00 0.00 0.00 0.00 0.00 0.00 0.00 0.00 0.00 0.00 0.00 0.00 0.00
0.00 0.00 0.00 0.00 0.00 0.00 0.00 0.00 0.00 0.00 0.00 0.00 0.00 0.00 0.00 0.00 0.00 0.00 0.01 0.01 0.00 0.01 0.01 0.00 0.00 0.00 0.00 0.00 0.00 0.00 0.00 0.00 0.00 0.00 0.00 0.00 0.00 0.00 0.00 0.00 0.00 0.00 0.00 0.00
0.00 0.00 0.00 0.01 0.01 0.00 0.00 0.00 0.00 0.00 0.00 0.00 0.00 0.00 0.00 0.00 0.00 0.00 0.00 0.00 0.00 0.00 0.00 0.00 0.00 0.00 0.00 0.00 0.00 0.00 0.00 0.00 0.00 0.00 0.00 0.00 0.00 0.00 0.00 0.00 0.00 0.00 0.00 0.00
0.00 0.00 0.00 0.00 0.00 0.00 0.00 0.00 0.00 0.00 0.00 0.00 0.00 0.00 0.00 0.00 0.00 0.00 0.00 0.00 0.00 0.00 0.00 0.00 0.00 0.00 0.00 0.00 0.00 0.00 0.00 0.00 0.00 0.00 0.00 0.00 0.00 0.00 0.00 0.00 0.00 0.00 0.00 0.00
0.00 0.00 0.00 0.00 0.00 0.00 0.00 0.00 0.00 0.00 0.00 0.00 0.00 0.00 0.00 0.00 0.00 0.00 0.00 0.00 0.00 0.00 0.00 0.00 0.00 0.00 0.00 0.00 0.00 0.00 0.00 0.00 0.00 0.00 0.00 0.00 0.00 0.00 0.00 0.00 0.00 0.00 0.00 0.00
0.00 0.00 0.00 0.00 0.00 0.00 0.00 0.00 0.00 0.00 0.00 0.00 0.00 0.00 0.00 0.00 0.00 0.00 0.00 0.00 0.00 0.00 0.00 0.00 0.00 0.00 0.00 0.00 0.00 0.00 0.00 0.00 0.00 0.00 0.00 0.00 0.00 0.00 0.00 0.00 0.00 0.00 0.00 0.00
0.00 0.00 0.00 0.00 0.00 0.00 0.00 0.00 0.00 0.00 0.00 0.00 0.00 0.00 0.00 0.00 0.00 0.00 0.00 0.00 0.00 0.00 0.00 0.00 0.00 0.00 0.00 0.00 0.00 0.00 0.00 0.00 0.00 0.00 0.00 0.00 0.00 0.00 0.00 0.00 0.00 0.00 0.00 0.00
0.00 0.00 0.00 0.00 0.00 0.00 0.00 0.00 0.00 0.00 0.00 0.00 0.00 0.00 0.00 0.00 0.00 0.00 0.00 0.00 0.00 0.00 0.00 0.00 0.00 0.00 0.00 0.00 0.00 0.00 0.00 0.00 0.00 0.00 0.00 0.00 0.00 0.00 0.00 0.00 0.00 0.00 0.00 0.00
0.00 0.00 0.00 0.00 0.00 0.00 0.00 0.00 0.00 0.00 0.00 0.00 0.00 0.00 0.00 0.00 0.00 0.00 0.00 0.00 0.00 0.00 0.00 0.00 0.00 0.00 0.00 0.00 0.00 0.00 0.00 0.00 0.00 0.00 0.00 0.00 0.00 0.00 0.00 0.00 0.00 0.00 0.00 0.00
0.00 0.00 0.00 0.00 0.00 0.00 0.00 0.00 0.00 0.00 0.00 0.00 0.00 0.00 0.00 0.00 0.00 0.00 0.00 0.00 0.00 0.00 0.00 0.00 0.00 0.00 0.00 0.00 0.00 0.00 0.00 0.00 0.00 0.00 0.00 0.00 0.00 0.00 0.00 0.00 0.00 0.00 0.00 0.00
0.00 0.00 0.00 0.00 0.00 0.00 0.00 0.00 0.00 0.00 0.00 0.00 0.00 0.00 0.00 0.00 0.00 0.00 0.00 0.00 0.00 0.00 0.00 0.00 0.00 0.00 0.00 0.00 0.00 0.00 0.00 0.00 0.00 0.00 0.00 0.00 0.00 0.00 0.00 0.00 0.00 0.00 0.00 0.00
0.00 0.00 0.00 0.00 0.00 0.00 0.00 0.00 0.00 0.00 0.00 0.00 0.00 0.00 0.00 0.00 0.00 0.00 0.00 0.00 0.00 0.00 0.00 0.00 0.00 0.00 0.00 0.00 0.00 0.00 0.00 0.00 0.00 0.00 0.00 0.00 0.00 0.00 0.00 0.00 0.00 0.00 0.00 0.00
0.00 0.00 0.00 0.00 0.00 0.00 0.00 0.00 0.00 0.00 0.00 0.00 0.00 0.00 0.00 0.00 0.00 0.00 0.00 0.00 0.00 0.00 0.00 0.00 0.00 0.00 0.00 0.00 0.00 0.00 0.00 0.00 0.00 0.00 0.00 0.00 0.00 0.00 0.00 0.00 0.00 0.00 0.00 0.00
0.00 0.00 0.00 0.00 0.00 0.00 0.00 0.00 0.00 0.00 0.00 0.00 0.00 0.00 0.00 0.00 0.00 0.00 0.00 0.00 0.00 0.00 0.00 0.00 0.00 0.00 0.00 0.00 0.00 0.00 0.00 0.00 0.00 0.00 0.00 0.00 0.00 0.00 0.00 0.00 0.00 0.00 0.00 0.00
0.00 0.00 0.00 0.00 0.00 0.00 0.00 0.00 0.00 0.00 0.00 0.00 0.00 0.00 0.00 0.00 0.00 0.00 0.00 0.00 0.00 0.00 0.00 0.00 0.00 0.00 0.00 0.00 0.00 0.00 0.00 0.00 0.00 0.00 0.00 0.00 0.00 0.00 0.00 0.00 0.00 0.00 0.00 0.00
0.00 0.00 0.00 0.00 0.00 0.00 0.00 0.00 0.00 0.00 0.00 0.00 0.00 0.00 0.00 0.00 0.00 0.00 0.00 0.00 0.00 0.00 0.00 0.00 0.00 0.00 0.00 0.00 0.00 0.00 0.00 0.00 0.00 0.00 0.00 0.00 0.00 0.00 0.00 0.00 0.00 0.00 0.00 0.00
0.00 0.00 0.00 0.00 0.00 0.00 0.00 0.00 0.00 0.00 0.00 0.00 0.00 0.00 0.00 0.00 0.00 0.00 0.00 0.00 0.00 0.00 0.00 0.00 0.00 0.00 0.00 0.00 0.00 0.00 0.00 0.00 0.00 0.00 0.00 0.00 0.00 0.00 0.00 0.00 0.00 0.00 0.00 0.00
0.00 0.00 0.00 0.00 0.00 0.00 0.00 0.00 0.00 0.00 0.00 0.00 0.00 0.00 0.00 0.00 0.00 0.00 0.00 0.00 0.00 0.00 0.00 0.00 0.00 0.00 0.00 0.00 0.00 0.00 0.00 0.00 0.00 0.00 0.00 0.00 0.00 0.00 0.00 0.00 0.00 0.00 0.00 0.00
0.00 0.00 0.00 0.00 0.00 0.00 0.00 0.00 0.00 0.00 0.00 0.00 0.00 0.00 0.00 0.00 0.00 0.00 0.00 0.00 0.00 0.00 0.00 0.00 0.00 0.00 0.00 0.00 0.00 0.00 0.00 0.00 0.00 0.00 0.00 0.00 0.00 0.00 0.00 0.00 0.00 0.00 0.00 0.00
0.00 0.00 0.00 0.00 0.00 0.00 0.00 0.00 0.00 0.00 0.00 0.00 0.00 0.00 0.00 0.00 0.00 0.00 0.00 0.00 0.00 0.00 0.00 0.00 0.00 0.00 0.00 0.00 0.00 0.00 0.00 0.00 0.00 0.00 0.00 0.00 0.00 0.00 0.00 0.00 0.00 0.00 0.00 0.00
MSLP
1008.91 1008.71 1008.73 1008.76 1009.01 1009.57 1010.54 1010.96 1011.76 1011.59 1011.50 1010.84 1010.32 1009.93 1009.33 1009.36 1009.59 1010.35 1010.76 1011.22 1011.13 1011.35 1011.68 1012.17 1013.01 1013.67 1014.33 1015.09 1015.79 1016.45 1017.30 1018.37 1019.32 1020.19 1021.06 1021.87 1022.82 1023.75 1024.57 1025.28 1025.95 1026.82 1027.70 1028.61
1009.84 1009.30 1009.11 1009.09 1009.29 1009.53 1009.87 1010.15 1010.59 1010.86 1011.07 1010.93 1010.61 1010.31 1010.40 1010.46 1010.08 1009.91 1009.96 1010.25 1010.54 1010.73 1011.29 1011.81 1012.41 1013.00 1013.75 1014.57 1015.25 1016.04 1017.20 1018.19 1019.08 1020.25 1021.25 1022.01 1022.74 1023.73 1024.72 1025.53 1026.22 1026.97 1028.02 1028.81
1011.00 1010.35 1009.98 1009.71 1009.12 1009.23 1009.56 1009.85 1010.32 1010.98 1011.46 1011.66 1011.35 1011.41 1011.47 1011.36 1010.90 1010.42 1010.23 1009.96 1010.15 1010.09 1010.38 1010.96 1011.53 1012.21 1013.18 1014.06 1015.01 1015.87 1016.85 1017.88 1018.92 1020.02 1021.21 1022.29 1023.01 1023.80 1024.67 1025.55 1026.41 1027.28 1028.24 1029.04
1012.18 1011.62 1010.92 1009.79 1009.01 1008.80 1009.62 1010.65 1011.08 1011.66 1012.13 1012.17 1011.81 1011.72 1011.89 1011.84 1011.50 1010.98 1010.54 1010.08 1010.19 1010.40 1010.48 1010.92 1011.51 1012.29 1013.16 1013.93 1014.81 1015.82 1016.83 1017.82 1018.86 1019.99 1021.10 1022.17 1023.15 1023.99 1024.90 1025.69 1026.54 1027.52 1028.48 1029.30
1013.05 1012.78 1011.49 1010.18 1009.27 1009.24 1009.88 1011.70 1012.07 1012.55 1012.84 1012.69 1011.91 1011.52 1011.78 1011.73 1011.60 1011.14 1010.26 1009.43 1009.00 1009.26 1010.03 1010.75 1011.51 1012.31 1013.21 1014.17 1014.76 1015.57 1016.58 1017.60 1018.76 1019.77 1020.87 1021.95 1023.01 1024.06 1024.98 1025.93 1026.85 1027.92 1028.83 1029.60
1013.76 1013.51 1012.32 1010.86 1009.59 1009.47 1009.94 1011.64 1012.61 1012.90 1013.20 1013.13 1012.12 1012.57 1013.37 1012.40 1011.56 1010.31 1009.51 1008.39 1008.23 1008.93 1010.09 1010.98 1011.85 1012.47 1013.45 1014.45 1015.12 1015.79 1016.57 1017.48 1018.47 1019.53 1020.52 1021.56 1022.59 1023.71 1024.87 1025.88 1026.83 1027.90 1029.05 1029.75
1013.95 1013.56 1012.44 1011.07 1010.60 1009.98 1011.21 1012.66 1012.86 1013.09 1013.29 1013.30 1013.33 1013.79 1013.40 1012.75 1011.75 1011.05 1010.52 1009.77 1009.56 1010.09 1010.84 1011.95 1012.42 1012.98 1013.85 1014.68 1015.35 1015.94 1016.73 1017.78 1018.72 1019.65 1020.61 1021.58 1022.54 1023.70 1024.57 1025.83 1026.94 1027.99 1028.95 1029.88
1013.88 1013.60 1012.73 1011.30 1010.99 1011.32 1012.21 1012.67 1012.92 1013.21 1013.34 1013.52 1013.64 1013.67 1013.38 1012.92 1012.39 1011.84 1011.41 1011.16 1011.00 1010.58 1011.39 1011.86 1012.90 1013.45 1014.19 1014.89 1015.45 1016.24 1017.13 1018.05 1018.90 1019.74 1020.63 1021.79 1022.78 1023.92 1024.59 1025.56 1026.95 1028.12 1029.03 1030.04
1012.66 1012.68 1012.32 1011.85 1011.81 1012.05 1012.29 1012.77 1013.01 1013.18 1013.36 1013.49 1013.63 1013.73 1013.54 1013.30 1012.99 1012.67 1012.38 1011.97 1012.11 1012.02 1012.77 1012.72 1013.13 1013.45 1014.25 1014.91 1015.54 1016.39 1017.40 1018.27 1019.04 1019.79 1020.65 1021.62 1022.69 1023.90 1024.74 1025.53 1026.69 1027.86 1028.73 1029.67
1012.30 1013.26 1012.78 1012.71 1012.83 1012.80 1012.74 1013.19 1013.44 1013.38 1013.60 1013.69 1014.03 1013.97 1013.82 1013.60 1013.50 1013.29 1012.93 1012.84 1012.72 1012.92 1012.69 1013.24 1013.18 1013.25 1013.84 1014.70 1015.48 1016.37 1017.28 1018.24 1019.05 1019.88 1020.81 1021.63 1022.57 1023.40 1024.49 1025.44 1026.29 1027.23 1028.21 1029.11
1013.62 1013.51 1013.31 1013.56 1013.55 1013.54 1013.63 1013.71 1013.97 1014.00 1014.01 1014.16 1014.06 1014.06 1014.05 1014.04 1013.71 1013.37 1013.23 1012.99 1012.80 1013.08 1013.24 1013.03 1013.15 1013.40 1013.85 1014.53 1015.46 1016.22 1017.16 1018.04 1018.97 1019.74 1020.60 1021.63 1022.64 1023.30 1023.97 1024.75 1025.10 1026.19 1027.09 1027.95
1014.15 1014.19 1014.13 1014.52 1014.30 1014.25 1014.50 1014.55 1014.42 1014.37 1014.33 1014.27 1014.20 1014.20 1014.01 1014.10 1013.81 1013.57 1013.14 1012.77 1012.72 1012.84 1013.10 1013.46 1012.95 1012.84 1013.64 1014.18 1014.97 1015.88 1016.77 1017.87 1018.64 1019.59 1020.56 1021.46 1022.43 1023.78 1024.23 1024.48 1024.85 1025.36 1026.02 1026.80
1014.13 1014.21 1014.34 1014.48 1014.77 1014.79 1014.86 1015.02 1014.92 1014.91 1014.85 1014.82 1014.42 1014.24 1014.13 1014.02 1013.76 1013.55 1013.27 1012.80 1012.58 1012.41 1012.35 1012.58 1012.89 1012.70 1012.96 1013.72 1014.36 1015.37 1015.77 1016.93 1018.17 1019.10 1020.00 1020.97 1022.01 1022.86 1024.19 1025.16 1025.19 1025.41 1025.78 1026.51
1014.13 1014.36 1014.75 1015.10 1015.77 1015.75 1015.67 1015.74 1015.68 1015.65 1015.62 1015.55 1015.43 1015.12 1015.00 1014.74 1014.21 1013.87 1013.42 1012.99 1012.54 1012.21 1011.97 1011.95 1012.11 1012.07 1012.14 1012.85 1013.67 1014.60 1015.21 1015.59 1016.68 1018.04 1019.00 1020.09 1021.15 1022.17 1023.16 1024.14 1025.23 1026.17 1026.53 1026.68
1014.00 1014.22 1014.83 1015.63 1015.91 1016.04 1016.15 1016.16 1016.22 1016.43 1016.44 1016.15 1015.99 1015.88 1015.59 1015.33 1015.03 1014.62 1013.98 1013.40 1012.76 1012.38 1012.09 1011.89 1011.74 1011.79 1012.09 1012.46 1013.18 1014.00 1014.90 1015.60 1016.01 1017.37 1018.28 1019.12 1020.40 1021.53 1022.56 1023.60 1024.67 1025.71 1026.68 1027.46
1014.48 1014.82 1015.21 1015.50 1015.97 1016.18 1016.25 1016.37 1016.45 1016.61 1016.63 1016.59 1016.51 1016.25 1016.03 1015.75 1015.29 1014.82 1014.28 1013.78 1013.58 1013.08 1012.41 1011.96 1011.73 1011.28 1011.54 1011.86 1012.46 1013.45 1014.18 1014.78 1015.76 1016.46 1017.87 1018.76 1019.91 1020.90 1021.93 1022.92 1024.03 1025.06 1025.90 1026.61
1014.71 1015.04 1015.33 1015.80 1016.06 1016.20 1016.27 1016.43 1016.59 1016.64 1016.42 1016.24 1016.07 1015.95 1015.80 1015.55 1015.24 1014.78 1014.18 1013.76 1013.37 1012.79 1012.30 1011.84 1011.12 1010.81 1011.09 1011.27 1011.62 1012.47 1013.46 1014.52 1015.37 1016.79 1017.61 1017.67 1018.80 1019.85 1020.83 1021.90 1023.07 1024.24 1025.14 1025.90
1014.30 1014.88 1015.20 1015.37 1015.77 1016.13 1016.25 1016.30 1016.41 1016.43 1016.38 1016.12 1015.98 1015.84 1015.66 1015.46 1015.10 1014.63 1014.34 1013.97 1013.45 1012.68 1011.79 1011.12 1010.63 1010.31 1010.36 1010.92 1011.19 1011.76 1012.65 1013.52 1014.52 1015.25 1016.39 1017.71 1018.28 1019.04 1020.09 1020.95 1022.09 1023.37 1024.54 1025.61
1014.72 1014.91 1015.03 1015.28 1015.65 1015.96 1016.14 1016.26 1016.25 1016.08 1015.95 1015.86 1015.82 1015.68 1015.54 1015.22 1014.91 1014.40 1014.11 1013.82 1013.27 1012.51 1011.22 1010.52 1010.01 1009.90 1009.42 1009.74 1010.66 1011.56 1012.13 1012.87 1013.76 1014.58 1015.58 1016.87 1017.72 1018.44 1019.37 1020.29 1021.24 1022.53 1023.70 1024.83
1015.53 1015.13 1015.13 1015.10 1015.36 1015.68 1015.82 1015.73 1015.72 1015.68 1015.45 1015.38 1015.36 1015.09 1014.96 1014.69 1014.42 1014.08 1013.83 1013.25 1012.74 1012.12 1011.32 1010.46 1010.02 1009.48 1008.95 1009.01 1009.42 1010.07 1010.85 1011.77 1012.56 1013.55 1014.75 1016.00 1017.02 1017.72 1018.49 1019.83 1020.60 1021.75 1022.75 1023.91
1014.30 1014.86 1014.81 1014.83 1014.86 1014.92 1015.14 1015.24 1015.38 1015.36 1014.96 1014.84 1014.99 1014.74 1014.50 1014.13 1013.71 1013.27 1012.99 1012.09 1011.05 1010.79 1010.46 1009.98 1009.48 1008.94 1008.52 1008.66 1009.16 1009.42 1010.10 1010.88 1011.82 1012.76 1013.71 1014.98 1016.07 1017.02 1018.12 1019.10 1020.08 1021.16 1022.30 1023.49
1014.39 1014.30 1014.36 1014.39 1014.54 1014.62 1014.64 1014.77 1014.85 1014.92 1014.70 1014.57 1014.29 1014.16 1013.85 1013.33 1012.87 1012.40 1011.92 1011.39 1010.35 1009.98 1009.61 1009.22 1008.69 1008.30 1008.03 1008.15 1008.51 1008.98 1009.52 1010.23 1011.06 1012.00 1012.83 1014.36 1015.42 1016.53 1017.58 1018.52 1019.67 1020.83 1021.84 1022.92
1013.66 1013.73 1013.75 1014.01 1014.36 1014.45 1014.18 1014.24 1014.31 1014.45 1014.14 1013.83 1013.46 1013.09 1012.83 1012.37 1012.10 1011.81 1010.94 1010.39 1010.07 1009.49 1009.01 1008.46 1008.03 1007.76 1007.81 1007.71 1007.77 1008.22 1008.82 1009.51 1010.26 1010.99 1012.10 1013.17 1014.61 1016.00 1017.09 1018.04 1019.01 1020.21 1021.29 1022.60
1013.05 1012.97 1013.20 1013.32 1013.74 1013.97 1013.94 1013.38 1013.32 1013.22 1013.15 1012.80 1012.45 1011.99 1011.95 1011.71 1011.17 1010.98 1010.46 1010.07 1009.72 1009.16 1008.68 1008.12 1007.56 1007.23 1007.16 1007.24 1007.41 1007.74 1008.21 1008.83 1009.61 1010.65 1011.91 1012.75 1014.31 1015.71 1016.86 1017.72 1018.88 1020.00 1021.05 1022.08
1012.37 1012.50 1012.71 1012.91 1013.03 1012.98 1012.77 1012.61 1012.65 1012.41 1012.21 1011.97 1011.53 1011.13 1011.01 1010.83 1010.98 1010.23 1010.11 1009.75 1009.25 1008.76 1008.24 1007.66 1007.19 1006.71 1006.71 1006.78 1006.95 1007.24 1007.75 1008.42 1009.31 1010.57 1011.55 1012.70 1014.05 1015.37 1016.42 1017.45 1018.33 1019.64 1020.83 1021.58
1012.23 1012.32 1012.37 1012.06 1011.87 1011.83 1011.92 1011.92 1011.96 1011.61 1011.54 1011.33 1010.90 1010.62 1010.48 1010.42 1010.27 1010.03 1009.75 1009.52 1009.13 1008.50 1007.91 1007.32 1006.91 1006.71 1006.64 1006.71 1006.94 1007.43 1007.92 1008.59 1009.41 1010.28 1011.34 1012.45 1013.59 1014.79 1015.79 1016.86 1018.08 1019.40 1020.45 1021.37
1011.73 1011.48 1011.58 1011.59 1011.54 1011.23 1010.98 1010.92 1010.97 1010.68 1010.44 1010.45 1010.23 1009.82 1009.69 1009.60 1009.52 1009.38 1009.31 1009.22 1008.91 1008.35 1007.69 1007.22 1006.99 1006.78 1006.68 1006.74 1007.01 1007.30 1007.99 1008.72 1009.28 1010.13 1011.17 1012.16 1013.21 1014.29 1015.32 1016.43 1017.68 1019.06 1020.24 1021.16
Thickness
5653 5663 5665 5663 5664 5661 5648 5649 5634 5650 5643 5659 5669 5676 5689 5688 5684 5679 5678 5674 5677 5678 5675 5672 5665 5660 5653 5644 5637 5630 5623 5613 5604 5595 5587 5578 5567 5556 5548 5540 5532 5524 5516 5506
5639 5651 5653 5651 5650 5652 5652 5655 5647 5652 5650 5653 5663 5670 5665 5667 5674 5679 5680 5677 5676 5676 5675 5666 5662 5657 5650 5641 5635 5628 5618 5609 5599 5588 5579 5570 5561 5551 5541 5532 5525 5517 5508 5499
5614 5635 5632 5619 5641 5646 5651 5654 5651 5637 5641 5642 5646 5647 5647 5650 5659 5665 5670 5673 5670 5672 5673 5669 5662 5657 5648 5640 5631 5623 5614 5603 5593 5583 5570 5559 5552 5545 5536 5526 5517 5509 5499 5491
5592 5611 5584 5627 5645 5652 5636 5629 5632 5627 5627 5630 5635 5638 5641 5640 5643 5649 5656 5665 5665 5663 5662 5661 5654 5647 5639 5633 5625 5615 5606 5597 5586 5574 5563 5553 5544 5536 5527 5519 5510 5500 5490 5482
5578 5582 5602 5618 5631 5631 5625 5606 5614 5612 5614 5617 5627 5635 5635 5636 5637 5640 5650 5660 5668 5666 5658 5651 5644 5637 5629 5620 5615 5609 5600 5590 5579 5568 5558 5548 5538 5528 5520 5510 5501 5491 5482 5474
5566 5571 5573 5596 5622 5627 5619 5590 5601 5603 5604 5607 5619 5608 5599 5619 5627 5641 5649 5658 5663 5657 5647 5639 5630 5627 5618 5609 5603 5598 5592 5583 5573 5562 5553 5544 5534 5523 5512 5503 5494 5484 5473 5466
5550 5558 5568 5593 5599 5617 5582 5577 5592 5594 5594 5593 5592 5591 5598 5604 5615 5625 5629 5637 5641 5637 5630 5620 5615 5612 5605 5598 5592 5588 5581 5572 5562 5553 5544 5535 5525 5515 5506 5494 5484 5475 5466 5457
5531 5536 5545 5582 5587 5582 5572 5579 5581 5581 5580 5579 5580 5582 5586 5591 5598 5605 5610 5615 5619 5622 5615 5609 5600 5597 5590 5586 5581 5576 5568 5560 5552 5543 5536 5524 5514 5504 5498 5489 5476 5465 5457 5447
5549 5544 5558 5563 5563 5563 5564 5563 5568 5568 5571 5572 5572 5569 5570 5572 5578 5585 5589 5595 5596 5597 5591 5590 5583 5585 5576 5573 5571 5564 5556 5549 5541 5534 5527 5517 5507 5496 5488 5480 5469 5458 5451 5442
5548 5539 5544 5544 5545 5549 5551 5551 5553 5556 5555 5556 5555 5556 5557 5558 5559 5565 5571 5574 5578 5576 5578 5575 5575 5574 5570 5565 5561 5554 5546 5538 5531 5524 5516 5508 5500 5493 5482 5472 5463 5455 5445 5436
5518 5524 5527 5526 5529 5533 5533 5537 5537 5538 5540 5540 5543 5544 5547 5545 5547 5550 5554 5558 5563 5560 5559 5562 5563 5562 5559 5554 5548 5542 5535 5528 5521 5515 5509 5499 5490 5484 5478 5469 5464 5453 5445 5437
5494 5505 5507 5508 5514 5518 5517 5519 5521 5524 5525 5527 5530 5530 5533 5532 5534 5536 5541 5547 5550 5550 5548 5547 5553 5555 5548 5544 5539 5533 5525 5517 5511 5504 5497 5490 5482 5469 5466 5462 5457 5451 5445 5436
5493 5499 5496 5500 5499 5499 5502 5500 5502 5504 5506 5510 5513 5515 5518 5520 5522 5525 5527 5533 5534 5538 5539 5538 5538 5542 5539 5535 5530 5523 5518 5511 5502 5496 5490 5482 5474 5468 5457 5447 5445 5442 5437 5429
5487 5488 5487 5481 5472 5475 5478 5479 5481 5483 5484 5485 5488 5491 5493 5497 5503 5506 5509 5513 5519 5523 5526 5526 5529 5532 5532 5527 5521 5515 5509 5507 5503 5493 5486 5476 5469 5461 5454 5447 5436 5426 5422 5419
5473 5474 5470 5463 5461 5461 5461 5462 5462 5461 5462 5464 5465 5467 5469 5472 5477 5481 5487 5493 5498 5502 5507 5510 5515 5517 5514 5513 5509 5503 5497 5495 5494 5483 5478 5472 5462 5454 5447 5439 5431 5420 5411 5404
5455 5454 5451 5449 5447 5446 5446 5444 5443 5442 5443 5444 5444 5446 5449 5452 5457 5462 5466 5470 5473 5478 5487 5488 5491 5502 5500 5501 5498 5492 5489 5487 5481 5474 5465 5461 5452 5446 5439 5432 5423 5414 5407 5400
5443 5443 5437 5432 5430 5430 5430 5429 5428 5427 5428 5429 5431 5432 5433 5434 5437 5441 5447 5449 5452 5460 5467 5471 5477 5483 5485 5486 5487 5483 5478 5472 5469 5459 5455 5455 5449 5443 5436 5427 5418 5408 5401 5394
5430 5425 5423 5423 5420 5416 5414 5414 5411 5410 5409 5412 5413 5413 5412 5409 5415 5420 5420 5423 5426 5434 5448 5456 5461 5465 5469 5469 5470 5469 5465 5461 5460 5457 5451 5443 5440 5436 5428 5423 5415 5404 5394 5384
5411 5410 5409 5408 5404 5399 5396 5393 5393 5394 5394 5396 5395 5394 5395 5396 5399 5401 5402 5404 5407 5414 5433 5437 5444 5446 5455 5457 5453 5450 5450 5447 5446 5446 5443 5435 5431 5428 5422 5415 5408 5398 5388 5379
5395 5397 5395 5395 5391 5386 5383 5382 5382 5382 5383 5384 5383 5379 5380 5381 5379 5380 5380 5386 5391 5395 5405 5415 5421 5430 5441 5445 5444 5442 5440 5438 5436 5435 5432 5427 5423 5420 5416 5405 5401 5391 5383 5372
5388 5382 5382 5381 5380 5379 5374 5372 5370 5372 5376 5374 5371 5370 5370 5371 5370 5371 5372 5380 5387 5384 5389 5396 5405 5416 5424 5429 5428 5431 5429 5427 5423 5423 5422 5418 5414 5410 5404 5398 5391 5383 5374 5363
5377 5376 5373 5372 5370 5368 5365 5362 5362 5362 5362 5364 5364 5361 5365 5367 5366 5368 5369 5372 5380 5378 5379 5385 5393 5401 5410 5413 5416 5418 5418 5416 5412 5411 5412 5405 5400 5398 5393 5388 5380 5372 5364 5354
5373 5370 5368 5356 5351 5356 5354 5352 5350 5350 5354 5357 5361 5363 5364 5365 5363 5364 5370 5368 5370 5373 5375 5379 5384 5389 5393 5402 5406 5408 5409 5407 5405 5403 5400 5396 5390 5385 5382 5377 5371 5363 5354 5344
5369 5367 5362 5359 5350 5348 5347 5355 5351 5352 5351 5356 5359 5361 5360 5359 5361 5357 5360 5363 5364 5367 5370 5374 5378 5383 5388 5393 5397 5399 5400 5398 5395 5390 5383 5382 5376 5371 5368 5364 5357 5350 5343 5336
5364 5360 5356 5353 5350 5349 5349 5349 5349 5350 5351 5354 5357 5359 5358 5356 5353 5358 5355 5357 5359 5362 5367 5371 5375 5379 5381 5385 5387 5388 5387 5384 5381 5375 5370 5365 5361 5357 5355 5352 5347 5338 5331 5327
5357 5350 5348 5351 5349 5347 5346 5344 5342 5346 5346 5349 5352 5353 5353 5351 5350 5349 5350 5350 5352 5356 5361 5366 5370 5372 5373 5375 5376 5374 5372 5368 5365 5361 5356 5352 5349 5346 5346 5341 5333 5327 5321 5316
5353 5349 5347 5344 5341 5341 5341 5341 5339 5342 5344 5343 5348 5350 5350 5350 5349 5348 5346 5344 5346 5350 5355 5358 5361 5364 5366 5366 5365 5364 5358 5352 5349 5346 5342 5340 5339 5337 5336 5330 5323 5318 5311 5306